This is the latest recevied weather packets stored in our database for station/object AC8JV. If no packets are shown the sender has not sent any weather packets the latest 10 day(s).
| Time | Temp. | Humidity | Pressure | Rain* | Wind** | Luminosity | Snow |
|---|---|---|---|---|---|---|---|
| 1777776010 | 4.44° C | 57% | 1017.1 hPa | 0 mm | - | - | - |
| 1777775411 | 5° C | 57% | 1017.2 hPa | 0 mm | - | - | - |
| 1777774807 | 5° C | 56% | 1017.1 hPa | 0 mm | - | - | - |
| 1777774276 | 5.56° C | 56% | 1017.3 hPa | 0 mm | - | - | - |
| 1777773608 | 5.56° C | 58% | 1017.2 hPa | 0 mm | - | - | - |
| 1777773001 | 5.56° C | 51% | 1017.2 hPa | 0 mm | - | - | - |
| 1777772403 | 5.56° C | 50% | 1017.2 hPa | 0 mm | - | - | - |
| 1777771835 | 6.11° C | 50% | 1017.1 hPa | 0 mm | - | - | - |
| 1777771228 | 6.11° C | 49% | 1017.2 hPa | 0 mm | - | - | - |
| 1777770611 | 6.11° C | 46% | 1017.2 hPa | 0 mm | - | - | - |
| 1777770071 | 6.67° C | 46% | 1017.2 hPa | 0 mm | - | - | - |
| 1777769421 | 6.67° C | 47% | 1017.2 hPa | 0 mm | - | - | - |
| 1777768820 | 7.22° C | 46% | 1017.3 hPa | 0 mm | - | - | - |
| 1777768214 | 7.22° C | 46% | 1017.1 hPa | 0 mm | - | - | - |
| 1777767607 | 7.78° C | 45% | 1017.2 hPa | 0 mm | - | - | - |
| 1777767051 | 7.78° C | 43% | 1017.2 hPa | 0 mm | - | - | - |
| 1777766414 | 8.33° C | 42% | 1017.2 hPa | 0 mm | - | - | - |
| 1777765800 | 8.89° C | 40% | 1017.3 hPa | 0 mm | - | - | - |
| 1777765232 | 9.44° C | 37% | 1017.3 hPa | 0 mm | - | - | - |
| 1777764602 | 10° C | 35% | 1017.3 hPa | 0 mm | - | - | - |
| 1777764002 | 10° C | 36% | 1017.3 hPa | 0 mm | - | - | - |
| 1777763400 | 10° C | 36% | 1017.4 hPa | 0 mm | - | - | - |
| 1777762801 | 10° C | 35% | 1017.4 hPa | 0 mm | - | - | - |
| 1777762205 | 10° C | 34% | 1017.5 hPa | 0 mm | - | - | - |
| 1777761600 | 10° C | 36% | 1017.6 hPa | 0 mm | - | - | - |
* Rain latest hour (hover to see other rain measurements)
** Current wind speed in m/s (hover to see current wind gust speed)